Weerstation Grootegast  Weerstation Grootegast


15 daagse weersverwachting Valongo, Ermesinde (PT)

  • Overzicht
  • Per uur
  • 15 dagen
  • Extra
  • Vergelijk
  • Kaarten
  • Dagkaart
  • Meer »
  • Info
  • Statistieken
  • Directe link
    Temp 6h Neerslag Wind  
 07:49     17:46    Daglengte: 9:57 Morgen
00:00
13°
12.6 mm
4
06:00
12°
11.3 mm
4
12:00
14°
17.0 mm
6
18:00
13°
21.5 mm
5
 07:48     17:47    Daglengte: 9:59 Donderdag 30 Jan
00:00
13°
12.6 mm
6
06:00
12°
23.4 mm
6
12:00
13°
29.7 mm
6
18:00
13°
29.1 mm
4
 07:47     17:49    Daglengte: 10:02 Vrijdag 31 Jan
00:00
13°
34.1 mm
3
06:00
13°
13.5 mm
3
12:00
15°
18.5 mm
5
18:00
14°
49.9 mm
6
Locatie info
Region: Porto
Latitude: 41.2175°N
Longitude: -8.5478°E
95 masl
Postcode: 4445-673
Temp/Neerslag /Baro Onweer/Dauwpunt
    Temp Baro 1h Neerslag Dauwpunt Wind UV Bewolking  
 07:50     17:45    Daglengte: 9:55 Vandaag
23:00
13°
1023.5 hPa 10.3 mm
48%
12.4°
4
Windvlaag: 3.4 m/s
90%
 07:49     17:46    Daglengte: 9:57 Morgen
00:00
13°
1023.4 hPa 2.3 mm
80%
11.8°
4
Windvlaag: 3.5 m/s
89%
01:00
12°
1023.2 hPa 1.6 mm
81%
11.8°
4
Windvlaag: 3.2 m/s
90%
02:00
12°
1022.8 hPa 2.4 mm
82%
11.6°
4
Windvlaag: 3.2 m/s
91%
03:00
12°
1022.6 hPa
80%
11.9°
4
Windvlaag: 3.6 m/s
85%
04:00
12°
1022.4 hPa 2.7 mm
82%
11.7°
4
Windvlaag: 3.3 m/s
90%
05:00
12°
1022.1 hPa 2.2 mm
82%
11.5°
4
Windvlaag: 2.7 m/s
90%
06:00
12°
1022.0 hPa 2.3 mm
82%
11.8°
4
Windvlaag: 3.4 m/s
89%
07:00
12°
1022.0 hPa 2.5 mm
82%
12.1°
4
Windvlaag: 3.7 m/s
91%
08:00
13°
1022.4 hPa 2.9 mm
82%
12.1°
5
Windvlaag: 4.4 m/s
90%
09:00
13°
1022.8 hPa 3.0 mm
82%
12.1°
5
Windvlaag: 5 m/s
91%
10:00
13°
1023.0 hPa 2.8 mm
82%
11.9°
5
Windvlaag: 5.2 m/s
91%
11:00
13°
1023.3 hPa 2.8 mm
82%
11.7°
6
Windvlaag: 5.1 m/s
90%
12:00
14°
1023.3 hPa 3.0 mm
82%
12.1°
6
Windvlaag: 5.3 m/s
89%
13:00
14°
1022.7 hPa 3.2 mm
82%
12.0°
6
Windvlaag: 5.5 m/s
90%
14:00
14°
1022.1 hPa 3.2 mm
82%
11.7°
6
Windvlaag: 5.6 m/s
86%
15:00
14°
1021.8 hPa 3.3 mm
82%
11.9°
6
Windvlaag: 5.4 m/s
90%
16:00
14°
1022.0 hPa 3.2 mm
82%
11.6°
6
Windvlaag: 5.1 m/s
89%
17:00
13°
1022.2 hPa 4.3 mm
82%
11.5°
6
Windvlaag: 4.9 m/s
89%
18:00
13°
1022.2 hPa 4.3 mm
82%
11.3°
5
Windvlaag: 4.7 m/s
87%
19:00
13°
1022.3 hPa 4.1 mm
81%
11.3°
5
Windvlaag: 4.4 m/s
85%
20:00
13°
1022.3 hPa 4.2 mm
80%
11.3°
5
Windvlaag: 4.4 m/s
85%
21:00
13°
1022.3 hPa
32%
11.3°
5
Windvlaag: 4.7 m/s
88%
22:00
13°
1022.4 hPa
24%
11.2°
5
Windvlaag: 4.7 m/s
77%
23:00
13°
1022.4 hPa
25%
11.2°
6
Windvlaag: 4.7 m/s
72%
 07:48     17:47    Daglengte: 9:59 Donderdag 30 Jan
00:00
13°
1022.2 hPa 4.3 mm
73%
10.9°
6
Windvlaag: 4.8 m/s
69%
01:00
12°
1022.0 hPa 3.2 mm
81%
10.8°
6
Windvlaag: 4.8 m/s
74%
02:00
12°
1021.7 hPa 3.2 mm
82%
10.4°
5
Windvlaag: 5.1 m/s
85%
03:00
12°
1021.3 hPa 4.5 mm
82%
10.3°
5
Windvlaag: 5.2 m/s
90%
04:00
12°
1020.7 hPa 5.2 mm
82%
10.5°
6
Windvlaag: 5.3 m/s
89%
05:00
12°
1020.4 hPa 3.5 mm
82%
10.7°
6
Windvlaag: 5.2 m/s
91%
06:00
12°
1020.4 hPa 3.8 mm
81%
11.1°
6
Windvlaag: 5.3 m/s
90%
07:00
12°
1020.3 hPa 5.3 mm
35%
11.2°
7
Windvlaag: 5.2 m/s
90%
08:00
13°
1020.5 hPa 5.7 mm
75%
11.5°
7
Windvlaag: 5.2 m/s
90%
09:00
13°
1020.8 hPa 4.4 mm
79%
11.7°
7
Windvlaag: 5.5 m/s
89%
10:00
13°
1021.0 hPa 4.5 mm
81%
12.1°
7
Windvlaag: 5.2 m/s
91%
11:00
13°
1021.2 hPa 4.7 mm
82%
12.4°
6
Windvlaag: 5.6 m/s
89%
12:00
13°
1021.3 hPa 5.2 mm
82%
12.8°
6
Windvlaag: 5.8 m/s
89%
13:00
14°
1021.0 hPa 5.1 mm
82%
13.2°
6
Windvlaag: 5.9 m/s
80%
14:00
14°
1020.7 hPa 5.0 mm
82%
13.5°
6
Windvlaag: 5.6 m/s
90%
15:00
14°
1020.5 hPa 4.9 mm
82%
13.4°
5
Windvlaag: 5.3 m/s
88%
16:00
14°
1020.7 hPa 4.8 mm
82%
13.4°
5
Windvlaag: 4.7 m/s
80%
17:00
14°
1021.2 hPa 4.7 mm
82%
13.4°
5
Windvlaag: 3.4 m/s
84%
18:00
13°
1021.7 hPa 4.7 mm
82%
13.2°
4
Windvlaag: 4.6 m/s
90%
19:00
13°
1022.2 hPa 4.6 mm
82%
13.2°
4
Windvlaag: 4.5 m/s
91%
20:00
13°
1022.6 hPa 4.6 mm
82%
13.1°
4
Windvlaag: 4.4 m/s
91%
21:00
13°
1023.1 hPa 4.7 mm
100%
13.0°
3
Windvlaag: 4 m/s
98%
22:00
13°
1023.2 hPa 6.7 mm
50%
13.0°
3
Windvlaag: 3.9 m/s
96%
23:00
13°
1023.3 hPa 6.7 mm
88%
13.0°
3
Windvlaag: 3.8 m/s
100%
 07:47     17:49    Daglengte: 10:02 Vrijdag 31 Jan
00:00
13°
1023.3 hPa 6.7 mm
85%
13.0°
3
Windvlaag: 4 m/s
98%
01:00
13°
1023.2 hPa 6.8 mm
97%
13.0°
3
Windvlaag: 4 m/s
100%
02:00
13°
1023.0 hPa 6.8 mm
99%
13.0°
3
Windvlaag: 3.8 m/s
96%
03:00
13°
1022.7 hPa
45%
12.9°
3
Windvlaag: 3.8 m/s
93%
04:00
13°
1022.2 hPa
85%
12.9°
2
Windvlaag: 3.7 m/s
99%
05:00
13°
1022.0 hPa
35%
13.0°
3
Windvlaag: 3.2 m/s
98%
06:00
13°
1021.9 hPa
76%
13.2°
3
Windvlaag: 3 m/s
95%
07:00
13°
1021.9 hPa
92%
13.0°
3
Windvlaag: 3.2 m/s
99%
08:00
13°
1022.0 hPa
100%
12.5°
3
Windvlaag: 3.8 m/s
100%
09:00
14°
1022.3 hPa 7.4 mm
100%
12.1°
4
Windvlaag: 4.1 m/s
100%
10:00
14°
1022.5 hPa
100%
13.0°
4
Windvlaag: 4.4 m/s
100%
11:00
15°
1022.6 hPa 5.6 mm
100%
13.3°
5
Windvlaag: 4.5 m/s
100%
12:00
15°
1022.5 hPa 5.5 mm
100%
13.3°
5
Windvlaag: 5.2 m/s
100%
13:00
15°
1021.9 hPa 12.2 mm
100%
13.4°
5
Windvlaag: 15.4 m/s
99%
14:00
15°
1021.5 hPa 12.3 mm
100%
13.5°
5
Windvlaag: 15.2 m/s
95%
15:00
15°
1021.3 hPa 12.3 mm
100%
13.6°
6
Windvlaag: 14.4 m/s
89%
16:00
14°
1021.2 hPa
85%
13.6°
6
Windvlaag: 12.9 m/s
100%
17:00
14°
1020.9 hPa
100%
13.5°
6
Windvlaag: 11.8 m/s
97%
18:00
14°
1020.8 hPa 13.1 mm
100%
13.5°
6
Windvlaag: 1.6 m/s
100%
19:00
14°
1020.9 hPa 13.1 mm
100%
13.4°
5
Windvlaag: 9.3 m/s
98%
20:00
14°
1021.2 hPa 12.8 mm
100%
13.4°
5
Windvlaag: 10.3 m/s
95%
21:00
14°
1021.3 hPa 12.8 mm
100%
13.3°
5
Windvlaag: 10.3 m/s
94%
22:00
14°
1021.6 hPa
100%
13.3°
5
Windvlaag: 9.7 m/s
95%
Temp/Neerslag /Baro Onweer/Dauwpunt
    Temp Baro Neerslag Dauwpunt Wind Bewolking  
 07:49     17:46    Daglengte: 9:57 Morgen
00:00
13°
1023.4 hPa 12.6 mm 11.8°
4
89%
03:00
12°
1022.6 hPa 4.1 mm 11.9°
4
85%
06:00
12°
1022.0 hPa 7.2 mm 11.8°
4
89%
09:00
13°
1022.8 hPa 8.5 mm 12.1°
5
91%
12:00
14°
1023.3 hPa 8.6 mm 12.1°
6
89%
15:00
14°
1021.8 hPa 9.7 mm 11.9°
6
90%
18:00
13°
1022.2 hPa 11.7 mm 11.3°
5
87%
21:00
13°
1022.3 hPa 8.3 mm 11.3°
5
88%
 07:48     17:47    Daglengte: 9:59 Donderdag 30 Jan
00:00
13°
1022.2 hPa 4.3 mm 10.9°
6
69%
03:00
12°
1021.3 hPa 10.9 mm 10.3°
5
90%
06:00
12°
1020.4 hPa 12.5 mm 11.1°
6
90%
09:00
13°
1020.8 hPa 15.3 mm 11.7°
7
89%
12:00
13°
1021.3 hPa 14.4 mm 12.8°
6
89%
15:00
14°
1020.5 hPa 15.0 mm 13.4°
5
88%
18:00
13°
1021.7 hPa 14.2 mm 13.2°
4
90%
21:00
13°
1023.1 hPa 14.0 mm 13.0°
3
98%
 07:47     17:49    Daglengte: 10:02 Vrijdag 31 Jan
00:00
13°
1023.3 hPa 20.1 mm 13.0°
3
98%
03:00
13°
1022.7 hPa 13.5 mm 12.9°
3
93%
06:00
13°
1021.9 hPa   13.2°
3
95%
09:00
14°
1022.3 hPa 7.4 mm 12.1°
4
100%
12:00
15°
1022.5 hPa 11.0 mm 13.3°
5
100%
15:00
15°
1021.3 hPa 36.8 mm 13.6°
6
89%
18:00
14°
1020.8 hPa 13.1 mm 13.5°
6
100%
21:00
14°
1021.3 hPa 38.6 mm 13.3°
5
94%
 07:46     17:50    Daglengte: 10:04 Zaterdag 01 Feb
00:00
14°
1022.0 hPa 37.9 mm 13.3°
5
97%
03:00
14°
1021.7 hPa 35.1 mm 13.4°
4
92%
06:00
14°
1021.6 hPa 35.2 mm 13.4°
4
92%
09:00
14°
1023.3 hPa 35.3 mm 14.0°
4
92%
12:00
15°
1024.8 hPa 35.3 mm 14.6°
5
92%
15:00
15°
1024.6 hPa 35.3 mm 14.0°
4
88%
18:00
14°
1024.7 hPa 35.3 mm 13.4°
4
85%
21:00
14°
1025.2 hPa 35.3 mm 13.0°
4
61%
 07:45     17:51    Daglengte: 10:06 Zondag 02 Feb
00:00
13°
1025.6 hPa 35.3 mm 12.6°
3
37%
03:00
12°
1025.4 hPa 35.3 mm 11.5°
3
28%
06:00
11°
1025.2 hPa 35.3 mm 10.3°
3
19%
09:00
15°
1026.3 hPa 35.3 mm 10.3°
3
14%
12:00
18°
1027.3 hPa 35.3 mm 9.3°
4
9%
15:00
16°
1026.9 hPa 35.3 mm 10.5°
3
50%
18:00
14°
1026.6 hPa 35.3 mm 11.1°
3
90%
21:00
12°
1026.8 hPa 35.3 mm 9.7°
3
89%
 07:44     17:52    Daglengte: 10:08 Maandag 03 Feb
00:00
11°
1026.9 hPa 35.3 mm 8.2°
3
87%
03:00
10°
1025.8 hPa 35.3 mm 7.3°
3
44%
06:00
10°
Voelt als: 8.2°
1024.7 hPa 35.3 mm 6.5°
3
0%
09:00
15°
1024.2 hPa 35.3 mm 8.9°
3
0%
12:00
20°
1023.7 hPa 35.3 mm 10.8°
4
0%
15:00
19°
1022.4 hPa 35.3 mm 12.0°
2
0%
18:00
18°
1021.3 hPa 35.3 mm 12.9°
1
0%
21:00
14°
1021.6 hPa 35.4 mm 11.0°
2
1%
 07:43     17:54    Daglengte: 10:11 Dinsdag 04 Feb
00:00
11°
1021.9 hPa 35.7 mm 9.0°
3
2%
03:00
10°
Voelt als: 8.9°
1020.8 hPa 35.8 mm 8.5°
2
43%
06:00
Voelt als: 7.9°
1019.9 hPa 35.8 mm 7.8°
2
85%
09:00
13°
1019.8 hPa 35.8 mm 9.2°
2
47%
12:00
18°
1019.7 hPa 35.8 mm 9.4°
2
10%
15:00
17°
1018.0 hPa 35.8 mm 9.0°
2
16%
18:00
15°
1016.5 hPa 35.8 mm 8.7°
2
23%
21:00
13°
1015.9 hPa   8.3°
2
57%
 07:42     17:55    Daglengte: 10:13 Woensdag 05 Feb
00:00
10°
1015.1 hPa 71.6 mm 7.6°
2
91%
06:00
Voelt als: 6.5°
1012.0 hPa 71.6 mm 5.7°
3
9%
12:00
17°
1013.1 hPa 71.6 mm 9.5°
2
83%
18:00
12°
1012.1 hPa 71.6 mm 10.2°
2
59%
 07:41     17:56    Daglengte: 10:15 Donderdag 06 Feb
00:00
12°
1014.1 hPa 71.6 mm 8.4°
6
28%
06:00
Voelt als: 4.8°
1015.4 hPa 71.6 mm 3.3°
8
22%
12:00
13°
1017.8 hPa 71.6 mm 4.7°
7
56%
18:00
13°
1016.2 hPa 71.6 mm 4.9°
6
92%
 07:40     17:57    Daglengte: 10:17 Vrijdag 07 Feb
00:00
10°
1017.2 hPa 71.6 mm 2.1°
6
90%
06:00
Voelt als: 4.0°
1018.0 hPa 71.6 mm 2.1°
7
82%
12:00
13°
1019.5 hPa 71.6 mm 2.8°
1
0%
18:00
11°
1025.8 hPa   6.2°
2
23%
 07:38     17:59    Daglengte: 10:21 Zaterdag 08 Feb
00:00
Voelt als: 7.9°
1027.2 hPa   5.4°
2
23%
06:00
Voelt als: 6.7°
1026.4 hPa   4.6°
3
22%
12:00
12°
1026.7 hPa 0.1 mm 5.3°
1
25%
18:00
11°
1025.2 hPa   6.8°
2
23%
 07:37     18:00    Daglengte: 10:23 Zondag 09 Feb
00:00
Voelt als: 8.2°
1026.2 hPa 0.2 mm 5.7°
2
21%
06:00
Voelt als: 7.2°
1025.3 hPa 0.2 mm 4.8°
2
28%
12:00
12°
1026.0 hPa 0.1 mm 6.1°
1
34%
18:00
11°
1024.6 hPa 0.5 mm 7.2°
2
26%
 07:36     18:01    Daglengte: 10:25 Maandag 10 Feb
00:00
Voelt als: 8.0°
1026.1 hPa   5.9°
2
15%
06:00
Voelt als: 7.0°
1025.0 hPa   5.2°
2
19%
12:00
12°
1025.1 hPa 0.2 mm 6.1°
1
25%
18:00
11°
1023.9 hPa 0.1 mm 7.1°
1
28%
 07:35     18:02    Daglengte: 10:27 Dinsdag 11 Feb
00:00
Voelt als: 8.4°
1025.7 hPa 0.3 mm 5.9°
2
35%
06:00
Voelt als: 7.7°
1025.3 hPa 0.2 mm 5.3°
2
30%
12:00
13°
1026.3 hPa 0.2 mm 6.5°
1
29%
18:00
11°
1025.2 hPa 0.2 mm 7.9°
1
29%
 07:33     18:04    Daglengte: 10:31 Woensdag 12 Feb
00:00
10°
Voelt als: 9.1°
1026.9 hPa 0.2 mm 6.7°
2
28%
06:00
Voelt als: 7.8°
1026.2 hPa   6.0°
2
22%
12:00
13°
1026.8 hPa   7.5°
2
23%
18:00
12°
1025.4 hPa   8.6°
1
23%
  CAPE Lifted Index Hail Supercell Tornado SRH 3km CL BTM PRES CL TOP PRES Swiss DWD icon SMHI TS
 07:50     17:45    Daglengte: 9:55 Vandaag
23:00 102 J/kg 6.8 K 0 % 0 % 0 % 0 m²/s² 0 0 8.57 3
 07:49     17:46    Daglengte: 9:57 Morgen
00:00 76 J/kg 7.3 K 0 % 0 % 0 % 0 m²/s² 0 0 7.84 3
01:00 66 J/kg 7.3 K 0 % 0 % 0 % 0 m²/s² 0 0 7.48 3
02:00 55 J/kg 7.1 K 0 % 0 % 0 % 0 m²/s² 0 0 7.22 61
03:00 79 J/kg 6.4 K 0 % 0 % 0 % 0 m²/s² 0 0 6.58 3
04:00 82 J/kg 5.9 K 0 % 0 % 0 % 0 m²/s² 0 0 6.02 3
05:00 61 J/kg 5.9 K 0 % 0 % 0 % 0 m²/s² 0 0 6.02 61
06:00 64 J/kg 5.6 K 0 % 0 % 0 % 0 m²/s² 0 0 5.69 55
07:00 68 J/kg 5.4 K 0 % 0 % 0 % 0 m²/s² 0 0 5.52 61
08:00 68 J/kg 5.4 K 0 % 0 % 0 % 0 m²/s² 0 0 5.49 55
09:00 56 J/kg 5.5 K 0 % 0 % 0 % 0 m²/s² 0 0 5.62 80
10:00 42 J/kg 5.4 K 0 % 0 % 0 % 0 m²/s² 0 0 5.49 61
11:00 33 J/kg 5.4 K 0 % 0 % 0 % 0 m²/s² 0 0 5.49 61
12:00 26 J/kg 5.3 K 0 % 0 % 0 % 0 m²/s² 0 0 5.39 61
13:00 28 J/kg 5.2 K 0 % 0 % 0 % 0 m²/s² 0 0 5.32 61
14:00 27 J/kg 5.3 K 0 % 0 % 0 % 0 m²/s² 0 0 5.48 61
15:00 32 J/kg 5.2 K 0 % 0 % 0 % 0 m²/s² 0 0 5.8 61
16:00 30 J/kg 5.3 K 0 % 0 % 0 % 0 m²/s² 0 0 5.9 61
17:00 39 J/kg 5.1 K 0 % 0 % 0 % 0 m²/s² 0 0 5.4 55
18:00 28 J/kg 5.1 K 0 % 0 % 0 % 0 m²/s² 0 0 5.34 80
19:00 23 J/kg 5.3 K 0 % 0 % 0 % 0 m²/s² 0 0 6.14 80
20:00 18 J/kg 5.4 K 0 % 0 % 0 % 0 m²/s² 0 0 6.54 61
21:00 20 J/kg 5.4 K 0 % 0 % 0 % 0 m²/s² 0 0 6.27 3
22:00 24 J/kg 5.3 K 0 % 0 % 0 % 0 m²/s² 0 0 5.72 3
23:00 21 J/kg 5.2 K 0 % 0 % 0 % 0 m²/s² 0 0 5.77 3
 07:48     17:47    Daglengte: 9:59 Donderdag 30 Jan
00:00 26 J/kg 4.9 K 0 % 0 % 0 % 0 m²/s² 0 0 5.29 3
01:00 18 J/kg 4.9 K 0 % 0 % 0 % 0 m²/s² 0 0 5.02 3
02:00 8 J/kg 4.9 K 0 % 0 % 0 % 0 m²/s² 0 0 5.02 80
03:00 7 J/kg 5.0 K 0 % 0 % 0 % 0 m²/s² 0 0 5.18 80
04:00 2 J/kg 3.0 K 0 % 0 % 0 % 0 m²/s² 0 0 3.33 80
05:00 3 J/kg 2.9 K 0 % 0 % 0 % 0 m²/s² 0 0 2.93 61
06:00 6 J/kg 3.4 K 0 % 0 % 0 % 0 m²/s² 0 0 3.82 61
07:00 6 J/kg 2.9 K 0 % 0 % 0 % 0 m²/s² 0 0 4.85 3
08:00 5 J/kg 2.4 K 0 % 0 % 0 % 0 m²/s² 0 0 4.89 3
09:00 1 J/kg 2.5 K 0 % 0 % 0 % 0 m²/s² 0 0 5.92 80
10:00 0 J/kg 3.1 K 0 % 0 % 0 % 0 m²/s² 0 0 7.42 80
11:00 0 J/kg 3.2 K 0 % 0 % 0 % 0 m²/s² 0 0 7.43 80
12:00 0 J/kg 3.5 K 0 % 0 % 0 % 0 m²/s² 0 0 7.43 80
13:00 0 J/kg 4.0 K 0 % 0 % 0 % 0 m²/s² 0 0 7.63 80
14:00 0 J/kg 4.1 K 0 % 0 % 0 % 0 m²/s² 0 0 7.46 80
15:00 0 J/kg 3.7 K 0 % 0 % 0 % 0 m²/s² 0 0 6.97 80
16:00 0 J/kg 3.5 K 0 % 0 % 0 % 0 m²/s² 0 0 6.68 80
17:00 0 J/kg 3.8 K 0 % 0 % 0 % 0 m²/s² 0 0 7.25 3
18:00 15 J/kg 3.9 K 0 % 0 % 0 % 0 m²/s² 0 0 7.74 80
19:00 15 J/kg 4.1 K 0 % 0 % 0 % 0 m²/s² 0 0 7.55 3
20:00 0 J/kg 4.3 K 0 % 0 % 0 % 0 m²/s² 0 0 7.6 80
21:00 2 J/kg 4.0 K 0 % 0 % 0 % 0 m²/s² 0 0 7.3 3
22:00 1 J/kg 3.0 K 0 % 0 % 0 % 0 m²/s² 0 0 6.3 3
23:00 1 J/kg 2.1 K 0 % 0 % 0 % 0 m²/s² 0 0 5.4 3
 07:47     17:49    Daglengte: 10:02 Vrijdag 31 Jan
00:00 1 J/kg 1.8 K 0 % 0 % 0 % 0 m²/s² 0 0 5.25 3
01:00 1 J/kg 1.8 K 0 % 0 % 0 % 0 m²/s² 0 0 5.61 80
02:00 1 J/kg 2.1 K 0 % 0 % 0 % 0 m²/s² 0 0 5.28 80
03:00 1 J/kg 2.6 K 0 % 0 % 0 % 0 m²/s² 0 0 7.4 3
04:00 1 J/kg 2.2 K 0 % 0 % 0 % 0 m²/s² 0 0 7.54 3
05:00 1 J/kg 2.2 K 0 % 0 % 0 % 0 m²/s² 0 0 7.84 3
06:00 1 J/kg 2.3 K 0 % 0 % 0 % 0 m²/s² 0 0 5.84 3
07:00 0 J/kg 2.5 K 0 % 0 % 0 % 0 m²/s² 0 0 3.52 3
08:00 0 J/kg 2.6 K 0 % 0 % 0 % 0 m²/s² 0 0 2.72 51
09:00 0 J/kg 2.8 K 0 % 0 % 0 % 0 m²/s² 0 0 2.89 80
10:00 0 J/kg 2.5 K 0 % 0 % 0 % 0 m²/s² 0 0 2.62 3
11:00 1 J/kg 1.8 K 0 % 0 % 0 % 0 m²/s² 0 0 1.89 80
12:00 1 J/kg 2.3 K 0 % 0 % 0 % 0 m²/s² 0 0 2.57 80
13:00 0 J/kg 3.3 K 0 % 0 % 0 % 0 m²/s² 0 0 4.47 80
14:00 0 J/kg 5.0 K 0 % 0 % 0 % 0 m²/s² 0 0 6.8 80
15:00 0 J/kg 6.4 K 0 % 0 % 0 % 0 m²/s² 0 0 6.64 80
16:00 2 J/kg 5.6 K 0 % 0 % 0 % 0 m²/s² 0 0 5.69 3
17:00 0 J/kg 6.8 K 0 % 0 % 0 % 0 m²/s² 0 0 6.92 3
18:00 0 J/kg 6.4 K 0 % 0 % 0 % 0 m²/s² 0 0 6.52 61
19:00 0 J/kg 6.1 K 0 % 0 % 0 % 0 m²/s² 0 0 6.22 61
20:00 0 J/kg 5.7 K 0 % 0 % 0 % 0 m²/s² 0 0 6.12 61
21:00 0 J/kg 4.2 K 0 % 0 % 0 % 0 m²/s² 0 0 5.13 61
22:00 0 J/kg 2.3 K 0 % 0 % 0 % 0 m²/s² 0 0 3.05 61
Temp Baro Wind Neerslag
  EWN Forecast EWN WRFDA DWD ICON FMI HIRLAM MET Norway GFS
 07:49     17:46    Daglengte: 9:57 Morgen
00:00 12.5° 1023.4 hPa 3.9 m/s 12.6 mm 12.3° 1022.3 hPa 5.0 m/s 20.5 mm 12.8° 1023.6 hPa 2.9 m/s -0.8 mm 14.1° 1023.2 hPa 4.9 m/s 0.0 mm 11.9° 1023.4 hPa 3.9 m/s 11.8° 1022.9 hPa 3.7 m/s
03:00 12.2° 1022.6 hPa 3.7 m/s 4.1 mm 12.1° 1021.6 hPa 4.8 m/s 31.1 mm 12.5° 1022.8 hPa 2.0 m/s 0.2 mm 14.1° 1022.6 hPa 4.8 m/s 0.0 mm 11.5° 1022.5 hPa 3.8 m/s 12.0° 1022.0 hPa 3.7 m/s
06:00 12.4° 1022.0 hPa 4.4 m/s 7.2 mm 12.8° 1020.6 hPa 5.0 m/s 34.1 mm 12.5° 1022.3 hPa 3.0 m/s 1.5 mm 13.7° 1022.1 hPa 5.2 m/s 0.0 mm 12.0° 1022.0 hPa 4.6 m/s 12.0° 1021.5 hPa 3.4 m/s
09:00 12.7° 1022.8 hPa 5.1 m/s 8.5 mm 13.1° 1021.0 hPa 6.7 m/s 38.5 mm 12.6° 1023.1 hPa 3.9 m/s 3.8 mm 13.9° 1022.7 hPa 5.3 m/s 0.0 mm 12.0° 1022.9 hPa 5.1 m/s 12.7° 1021.5 hPa 5.1 m/s
12:00 13.9° 1023.3 hPa 5.9 m/s 8.6 mm 13.6° 1022.0 hPa 7.3 m/s 49.7 mm 13.1° 1023.6 hPa 4.2 m/s 2.0 mm 15.1° 1023.1 hPa 6.8 m/s 0.0 mm 14.2° 1023.4 hPa 6.0 m/s 13.4° 1022.4 hPa 6.5 m/s
15:00 13.7° 1021.8 hPa 5.5 m/s 9.7 mm 14.6° 1020.5 hPa 8.4 m/s 58.2 mm 13.5° 1021.6 hPa 4.2 m/s 3.3 mm 14.7° 1021.8 hPa 7.3 m/s 0.0 mm 13.7° 1021.9 hPa 5.3 m/s 13.8° 1020.6 hPa 7.4 m/s
18:00 13.1° 1022.2 hPa 5.4 m/s 11.7 mm 13.7° 1020.8 hPa 6.4 m/s 59.1 mm 13.0° 1022.1 hPa 3.7 m/s 2.2 mm 14.3° 1021.5 hPa 6.0 m/s 0.0 mm 13.0° 1022.4 hPa 5.6 m/s 13.5° 1021.4 hPa 6.5 m/s
21:00 12.6° 1022.3 hPa 4.5 m/s 8.3 mm 13.3° 1020.9 hPa 6.6 m/s 60.0 mm 12.7° 1023.0 hPa 3.9 m/s 0.4 mm 14.0° 1021.6 hPa 5.8 m/s 0.0 mm 12.3° 1022.3 hPa 4.2 m/s 13.1° 1021.9 hPa 5.6 m/s
 07:48     17:47    Daglengte: 9:59 Donderdag 30 Jan
00:00 12.6° 1022.2 hPa 5.8 m/s 4.3 mm 13.1° 1021.3 hPa 6.6 m/s 60.8 mm 12.3° 1021.9 hPa 4.7 m/s 0.0 mm 14.6° 1020.9 hPa 7.3 m/s 0.0 mm 12.3° 1022.7 hPa 5.8 m/s 12.9° 1022.4 hPa 5.2 m/s
03:00 12.3° 1021.3 hPa 5.4 m/s 10.9 mm 13.0° 1020.3 hPa 6.3 m/s 61.4 mm 12.2° 1021.2 hPa 4.0 m/s 1.7 mm 14.0° 1019.8 hPa 7.4 m/s 0.0 mm 11.4° 1021.6 hPa 5.3 m/s 12.6° 1021.8 hPa 4.6 m/s
06:00 12.4° 1020.4 hPa 6.3 m/s 12.5 mm 12.6° 1020.0 hPa 6.8 m/s 67.8 mm 12.8° 1020.5 hPa 4.8 m/s 1.6 mm 13.8° 1019.0 hPa 8.6 m/s 0.0 mm 11.7° 1020.5 hPa 6.3 m/s 12.2° 1021.4 hPa 5.0 m/s
09:00 12.7° 1020.8 hPa 6.7 m/s 15.3 mm 12.6° 1020.8 hPa 6.6 m/s 79.0 mm 13.5° 1021.2 hPa 5.6 m/s 0.6 mm 14.3° 1019.2 hPa 9.7 m/s 0.0 mm 12.1° 1020.6 hPa 6.8 m/s 12.3° 1022.0 hPa 5.2 m/s
12:00 13.5° 1021.3 hPa 6.2 m/s 14.4 mm 13.0° 1021.6 hPa 6.7 m/s 84.4 mm 14.4° 1022.3 hPa 6.1 m/s 2.0 mm 14.8° 1020.0 hPa 8.1 m/s 0.0 mm 13.3° 1020.8 hPa 6.0 m/s 12.9° 1022.6 hPa 6.1 m/s
15:00 13.9° 1020.5 hPa 5.4 m/s 15.0 mm 13.5° 1020.6 hPa 5.9 m/s 88.1 mm 14.6° 1021.2 hPa 4.1 m/s 1.7 mm 14.9° 1019.4 hPa 7.0 m/s 0.0 mm 13.9° 1020.1 hPa 5.4 m/s 13.0° 1021.4 hPa 6.1 m/s
18:00 13.4° 1021.7 hPa 4.1 m/s 14.2 mm 13.5° 1021.1 hPa 5.9 m/s 92.0 mm 13.9° 1022.9 hPa 2.2 m/s 0.9 mm 14.7° 1020.8 hPa 5.3 m/s 0.0 mm 13.1° 1021.5 hPa 3.9 m/s 13.1° 1021.8 hPa 4.9 m/s
21:00 13.1° 1023.1 hPa 3.3 m/s 14.0 mm 13.5° 1022.3 hPa 4.2 m/s 93.7 mm 13.9° 1023.6 hPa 2.6 m/s 0.7 mm 12.8° 1022.9 hPa 3.2 m/s 13.5° 1022.8 hPa 4.0 m/s
 07:47     17:49    Daglengte: 10:02 Vrijdag 31 Jan
00:00 13.1° 1023.3 hPa 3.1 m/s 20.1 mm 13.5° 1022.1 hPa 5.3 m/s 95.5 mm 13.8° 1024.2 hPa 1.6 m/s 0.0 mm 12.5° 1023.2 hPa 3.1 m/s 13.5° 1023.0 hPa 4.6 m/s
03:00 13.0° 1022.7 hPa 2.8 m/s 13.5 mm 13.6° 1021.9 hPa 5.2 m/s 98.5 mm 13.3° 1024.0 hPa 2.6 m/s 0.6 mm 12.4° 1022.3 hPa 2.2 m/s 13.8° 1022.5 hPa 5.0 m/s
06:00 13.3° 1021.9 hPa 3.4 m/s 0.0 mm 13.4° 1020.8 hPa 5.2 m/s 101.9 mm 13.6° 1022.8 hPa 1.3 m/s 0.0 mm 12.7° 1021.7 hPa 3.6 m/s 13.8° 1021.2 hPa 4.6 m/s
09:00 13.6° 1022.3 hPa 3.7 m/s 7.4 mm 13.7° 1021.6 hPa 6.7 m/s 104.3 mm 14.4° 1023.2 hPa 3.9 m/s 0.9 mm 13.3° 1022.0 hPa 3.1 m/s 13.8° 1022.0 hPa 5.4 m/s
12:00 14.5° 1022.5 hPa 4.8 m/s 11.0 mm 13.7° 1022.1 hPa 7.5 m/s 106.3 mm 14.5° 1023.3 hPa 4.9 m/s 0.7 mm 15.2° 1022.2 hPa 4.4 m/s 13.4° 1022.0 hPa 6.1 m/s
15:00 14.7° 1021.3 hPa 5.6 m/s 36.8 mm 15.8° 1021.2 hPa 8.5 m/s 107.7 mm 14.7° 1022.6 hPa 5.4 m/s 1.3 mm 14.6° 1021.0 hPa 5.2 m/s 15.2° 1021.2 hPa 6.6 m/s
18:00 13.9° 1020.8 hPa 5.5 m/s 13.1 mm 14.3° 1021.1 hPa 5.4 m/s 110.6 mm 13.3° 1023.0 hPa 4.6 m/s 1.1 mm 14.0° 1019.9 hPa 5.9 m/s 13.9° 1021.2 hPa 4.7 m/s
21:00 13.7° 1021.3 hPa 5.2 m/s 38.6 mm 14.0° 1021.4 hPa 5.5 m/s 112.6 mm 13.2° 1023.2 hPa 4.1 m/s 1.7 mm 13.8° 1020.8 hPa 5.3 m/s 13.9° 1022.4 hPa 4.4 m/s
 07:46     17:50    Daglengte: 10:04 Zaterdag 01 Feb
00:00 13.6° 1022.0 hPa 4.8 m/s 37.9 mm 13.7° 1022.2 hPa 5.4 m/s 113.2 mm 13.5° 1023.0 hPa 4.3 m/s 0.3 mm 13.6° 1021.6 hPa 4.8 m/s 13.7° 1022.9 hPa 4.1 m/s
03:00 13.7° 1021.7 hPa 4.3 m/s 35.1 mm 13.7° 1021.5 hPa 4.3 m/s 13.4° 1023.5 hPa 3.9 m/s 35.1 mm
06:00 13.8° 1021.6 hPa 4.0 m/s 35.2 mm 13.8° 1021.5 hPa 4.1 m/s 13.3° 1023.2 hPa 3.1 m/s 35.2 mm
09:00 14.4° 1023.3 hPa 4.2 m/s 35.3 mm 14.4° 1023.1 hPa 4.4 m/s 13.5° 1025.2 hPa 2.6 m/s 35.3 mm
12:00 15.1° 1024.8 hPa 4.5 m/s 35.3 mm 15.1° 1024.7 hPa 4.7 m/s 14.8° 1025.7 hPa 2.7 m/s 35.3 mm
15:00 14.8° 1024.6 hPa 4.4 m/s 35.3 mm 14.5° 1024.7 hPa 4.6 m/s 17.6° 1024.1 hPa 2.2 m/s 35.3 mm
18:00 14.0° 1024.7 hPa 4.2 m/s 35.3 mm 13.9° 1024.7 hPa 4.5 m/s 14.7° 1024.2 hPa 1.2 m/s 35.3 mm
21:00 13.6° 1025.2 hPa 3.7 m/s 35.3 mm 13.6° 1025.2 hPa 4.0 m/s 13.9° 1025.2 hPa 1.4 m/s 35.3 mm
 07:45     17:51    Daglengte: 10:06 Zondag 02 Feb
00:00 13.2° 1025.6 hPa 3.3 m/s 35.3 mm 13.2° 1025.7 hPa 3.4 m/s 13.2° 1024.9 hPa 1.7 m/s 35.3 mm
03:00 12.3° 1025.4 hPa 3.0 m/s 35.3 mm 12.3° 1025.5 hPa 3.1 m/s 12.6° 1024.3 hPa 1.9 m/s 35.3 mm
06:00 11.5° 1025.2 hPa 2.7 m/s 35.3 mm 11.4° 1025.3 hPa 2.8 m/s 12.2° 1023.8 hPa 2.1 m/s 35.3 mm
09:00 14.5° 1026.3 hPa 3.3 m/s 35.3 mm 14.6° 1026.4 hPa 3.4 m/s 12.9° 1025.0 hPa 2.5 m/s 35.3 mm
12:00 17.9° 1027.3 hPa 3.9 m/s 35.3 mm 17.9° 1027.5 hPa 4.0 m/s 17.7° 1024.8 hPa 2.8 m/s 35.3 mm
15:00 16.1° 1026.9 hPa 3.5 m/s 35.3 mm 15.8° 1027.2 hPa 3.4 m/s 19.7° 1023.6 hPa 4.9 m/s 35.3 mm
18:00 13.9° 1026.6 hPa 2.8 m/s 35.3 mm 13.6° 1026.9 hPa 2.7 m/s 16.8° 1023.9 hPa 3.5 m/s 35.3 mm
21:00 12.2° 1026.8 hPa 2.6 m/s 35.3 mm 11.9° 1027.0 hPa 2.6 m/s 14.8° 1025.2 hPa 2.7 m/s 35.3 mm
 07:44     17:52    Daglengte: 10:08 Maandag 03 Feb
00:00 10.6° 1026.9 hPa 2.5 m/s 35.3 mm 10.3° 1027.0 hPa 2.5 m/s 13.6° 1025.5 hPa 2.7 m/s 35.3 mm
03:00 10.2° 1025.8 hPa 2.9 m/s 35.3 mm 10.0° 1025.8 hPa 3.0 m/s 12.8° 1024.9 hPa 2.2 m/s 35.3 mm
06:00 9.9° 1024.7 hPa 3.3 m/s 35.3 mm 9.7° 1024.7 hPa 3.4 m/s 12.1° 1024.3 hPa 1.9 m/s 35.3 mm
09:00 14.6° 1024.2 hPa 3.4 m/s 35.3 mm 14.8° 1024.2 hPa 3.6 m/s 12.7° 1025.1 hPa 1.5 m/s 35.3 mm
12:00 19.6° 1023.7 hPa 3.6 m/s 35.3 mm 19.8° 1023.6 hPa 3.8 m/s 17.5° 1024.4 hPa 1.9 m/s 35.3 mm
15:00 18.9° 1022.4 hPa 2.4 m/s 35.3 mm 19.0° 1022.4 hPa 2.2 m/s 18.4° 1022.4 hPa 3.7 m/s 35.3 mm
18:00 17.8° 1021.3 hPa 0.8 m/s 35.3 mm 18.1° 1021.2 hPa 0.7 m/s 14.1° 1022.5 hPa 1.7 m/s 35.3 mm
21:00 14.3° 1021.6 hPa 1.6 m/s 35.4 mm 14.4° 1021.4 hPa 1.7 m/s 13.0° 1024.2 hPa 0.4 m/s 35.4 mm
 07:43     17:54    Daglengte: 10:11 Dinsdag 04 Feb
00:00 10.9° 1021.9 hPa 2.5 m/s 35.7 mm 10.7° 1021.6 hPa 2.7 m/s 13.1° 1025.3 hPa 0.8 m/s 35.7 mm
03:00 9.9° 1020.8 hPa 2.3 m/s 35.8 mm 9.7° 1020.5 hPa 2.3 m/s 12.1° 1025.2 hPa 2.2 m/s 35.8 mm
06:00 8.9° 1019.9 hPa 2.0 m/s 35.8 mm 8.7° 1019.3 hPa 1.9 m/s 10.7° 1026.1 hPa 3.3 m/s 35.8 mm
09:00 13.3° 1019.8 hPa 1.8 m/s 35.8 mm 13.5° 1019.1 hPa 1.8 m/s 10.7° 1027.8 hPa 1.6 m/s 35.8 mm
12:00 17.8° 1019.7 hPa 1.9 m/s 35.8 mm 18.3° 1018.9 hPa 1.7 m/s 12.8° 1028.7 hPa 4.7 m/s 35.8 mm
15:00 16.7° 1018.0 hPa 2.2 m/s 35.8 mm 17.0° 1017.1 hPa 1.8 m/s 12.9° 1027.6 hPa 6.1 m/s 35.8 mm
18:00 15.3° 1016.5 hPa 2.2 m/s 35.8 mm 15.7° 1015.4 hPa 1.9 m/s 10.5° 1028.6 hPa 5.3 m/s 35.8 mm
21:00 12.8° 1015.9 hPa 2.1 m/s 35.8 mm 13.1° 1014.5 hPa 1.9 m/s 9.2° 1030.5 hPa 4.0 m/s 35.8 mm
 07:42     17:55    Daglengte: 10:13 Woensdag 05 Feb
00:00 10.3° 1015.1 hPa 2.1 m/s 35.8 mm 10.5° 1013.7 hPa 2.0 m/s 7.8° 1030.4 hPa 2.8 m/s 35.8 mm
06:00 8.3° 1012.0 hPa 2.9 m/s 35.8 mm 8.5° 1010.6 hPa 3.0 m/s 6.3° 1028.0 hPa 2.1 m/s 35.8 mm
12:00 16.6° 1013.1 hPa 2.4 m/s 35.8 mm 17.0° 1011.7 hPa 2.4 m/s 11.8° 1028.0 hPa 2.3 m/s 35.8 mm
18:00 12.1° 1012.1 hPa 1.9 m/s 35.8 mm 12.2° 1010.9 hPa 1.8 m/s 11.4° 1025.0 hPa 2.5 m/s 35.8 mm
 07:41     17:56    Daglengte: 10:15 Donderdag 06 Feb
00:00 11.7° 1014.1 hPa 6.0 m/s 35.8 mm 11.9° 1013.1 hPa 6.4 m/s 9.8° 1024.8 hPa 1.3 m/s 35.8 mm
06:00 8.5° 1015.4 hPa 7.7 m/s 35.8 mm 8.4° 1014.7 hPa 8.3 m/s 9.2° 1023.3 hPa 1.4 m/s 35.8 mm
12:00 12.7° 1017.8 hPa 7.1 m/s 35.8 mm 12.6° 1017.3 hPa 7.6 m/s 13.8° 1023.0 hPa 1.4 m/s 35.8 mm
18:00 12.6° 1016.2 hPa 5.7 m/s 35.8 mm 12.7° 1015.8 hPa 6.1 m/s 11.4° 1020.7 hPa 1.8 m/s 35.8 mm
 07:40     17:57    Daglengte: 10:17 Vrijdag 07 Feb
00:00 10.4° 1017.2 hPa 6.4 m/s 35.8 mm 10.4° 1016.8 hPa 7.0 m/s 9.9° 1021.0 hPa 0.4 m/s 35.8 mm
06:00 7.7° 1018.0 hPa 7.0 m/s 35.8 mm 7.7° 1017.8 hPa 7.6 m/s 8.2° 1019.8 hPa 0.6 m/s 35.8 mm
12:00 13.3° 1019.5 hPa 1.0 m/s 35.8 mm 13.3° 1019.5 hPa 1.0 m/s 35.8 mm
18:00 10.6° 1025.8 hPa 2.3 m/s 0.0 mm
 07:38     17:59    Daglengte: 10:21 Zaterdag 08 Feb
00:00 9.0° 1027.2 hPa 2.2 m/s 0.0 mm
06:00 8.2° 1026.4 hPa 2.5 m/s 0.0 mm
12:00 11.8° 1026.7 hPa 1.4 m/s 0.1 mm
18:00 10.7° 1025.2 hPa 1.9 m/s 0.0 mm
 07:37     18:00    Daglengte: 10:23 Zondag 09 Feb
00:00 9.0° 1026.2 hPa 1.7 m/s 0.2 mm
06:00 8.3° 1025.3 hPa 1.9 m/s 0.2 mm
12:00 12.0° 1026.0 hPa 1.1 m/s 0.1 mm
18:00 10.9° 1024.6 hPa 2.0 m/s 0.5 mm
 07:36     18:01    Daglengte: 10:25 Maandag 10 Feb
00:00 8.9° 1026.1 hPa 1.9 m/s 0.0 mm
06:00 8.2° 1025.0 hPa 2.2 m/s 0.0 mm
12:00 12.2° 1025.1 hPa 1.1 m/s 0.2 mm
18:00 10.9° 1023.9 hPa 1.4 m/s 0.1 mm
 07:35     18:02    Daglengte: 10:27 Dinsdag 11 Feb
00:00 9.3° 1025.7 hPa 2.0 m/s 0.3 mm
06:00 8.7° 1025.3 hPa 2.1 m/s 0.2 mm
12:00 12.6° 1026.3 hPa 1.1 m/s 0.2 mm
18:00 11.3° 1025.2 hPa 1.0 m/s 0.2 mm
 07:33     18:04    Daglengte: 10:31 Woensdag 12 Feb
00:00 9.8° 1026.9 hPa 1.8 m/s 0.2 mm
06:00 9.0° 1026.2 hPa 2.3 m/s 0.0 mm
12:00 13.2° 1026.8 hPa 2.0 m/s 0.0 mm
18:00 11.7° 1025.4 hPa 0.7 m/s 0.0 mm
FMI Hirlam - 7.5 km EWN WRFDA - 12 km DWD ICON - 7 km GFS - 25 km Basiskaart






























































Updatetijd (Europe/Amsterdam) Resolutie Lengte Stap
FMI Hirlam 19:00, 01:00, 07:00, 13:00 7.5 km 49h 1h
EWN WRFDA 20:15, 02:15, 08:15, 14:15 12 km 73h 1h
DWD ICON 22:45, 04:45, 10:45, 16:45 7 km 75h 1h
GFS 18:45, 00:45, 06:45, 12:45 25 km 237h 3h
30+ mm
25-30 mm
20-25 mm
15-20 mm
10-15 mm
6-10 mm
4-6 mm
2-4 mm
1-2 mm
0.5-1 mm
0.2-0.5 mm
0.1-0.2 mm
30+ mm
25-30 mm
20-25 mm
15-20 mm
10-15 mm
6-10 mm
4-6 mm
2-4 mm
1-2 mm
0.5-1 mm
0.2-0.5 mm
0.1-0.2 mm
Sneeuwval
Natte sneeuw
Hagel
Vorst
30+ mm
25-30 mm
20-25 mm
15-20 mm
10-15 mm
6-10 mm
4-6 mm
2-4 mm
1-2 mm
0.5-1 mm
0.2-0.5 mm
0.1-0.2 mm
Sneeuwval
Natte sneeuw
Hagel
Vorst
Onweer
50 mm
40 mm
30 mm
26 mm
22 mm
18 mm
14 mm
10 mm
9 mm
8 mm
7 mm
6 mm
5 mm
4.5 mm
4 mm
3.5 mm
3 mm
2.5 mm
2 mm
1.5 mm
1 mm
0.8 mm
0.6 mm
0.4 mm
0.2 mm
0.05 mm
35°
30°
25°
20°
15°
10°
-5°
-10°
-15°
-20°
-25°
-30°
-35°
33> m/s
29 m/s
25 m/s
21 m/s
17 m/s
14 m/s
11 m/s
8 m/s
5 m/s
3 m/s
0 m/s
2600 J/kg
2400 J/kg
2200 J/kg
2000 J/kg
1800 J/kg
1600 J/kg
1400 J/kg
1200 J/kg
1000 J/kg
800 J/kg
600 J/kg
400 J/kg
200 J/kg
70 dBZ
65 dBZ
60 dBZ
55 dBZ
50 dBZ
45 dBZ
40 dBZ
35 dBZ
30 dBZ
25 dBZ
20 dBZ
15 dBZ
10 dBZ
5 dBZ
-1 K
-2 K
-3 K
-4 K
-5 K
-6 K
-7 K
-8 K
-9 K
950 m²/s²
900 m²/s²
850 m²/s²
800 m²/s²
750 m²/s²
700 m²/s²
650 m²/s²
600 m²/s²
550 m²/s²
500 m²/s²
450 m²/s²
400 m²/s²
350 m²/s²
300 m²/s²
250 m²/s²
200 m²/s²
150 m²/s²
100 m²/s²
46 m/s
44 m/s
42 m/s
40 m/s
38 m/s
36 m/s
34 m/s
32 m/s
30 m/s
28 m/s
26 m/s
24 m/s
22 m/s
20 m/s
16 m/s
12 m/s
8 m/s
4 m/s
30 m/s
28 m/s
26 m/s
24 m/s
22 m/s
20 m/s
18 m/s
16 m/s
14 m/s
12 m/s
10 m/s
8 m/s
6 m/s
4 m/s
2 m/s
3.0
2.8
2.6
2.4
2.2
2.0
1.8
1.6
1.4
1.2
1.0
0.8
0.6
0.4
0.2
15
14
13
12
11
10
9
8
7
6
5
4
3
2
1
90%
80%
70%
60%
50%
40%
30%
20%
10%
42
40
38
36
34
32
30
28
26
24
22
20
18
16
14
12
90+ cm
80-90 cm
70-80 cm
60-70 cm
50-60 cm
40-50 cm
30-40 cm
20-30 cm
10-20 cm
1-10 cm
Sneeuwval
Natte sneeuw
Regen
>120 mm
115 mm
110 mm
105 mm
100 mm
95 mm
90 mm
85 mm
80 mm
75 mm
70 mm
65 mm
60 mm
55 mm
50 mm
45 mm
45 mm
40 mm
35 mm
30 mm
25 mm
20 mm
15 mm
10 mm
5 mm
0.1 mm
960 hPa
880 hPa
800 hPa
720 hPa
640 hPa
560 hPa
584 gpdm
568 gpdm
552 gpdm
536 gpdm
520 gpdm
504 gpdm
488 gpdm
Extreem zwaar Noodweer Kans op onweer
15% 15% 5% 50% 15%

Dag




Kaart






35°
30°
25°
20°